owner,sensor,date,latitude,longitude,air_temperature,qcFlag 
NDBC,ioos:station:NOAA.NDBC:SANF1:1,2019-09-01T00:50:00Z,24.4560,-81.8770,28.6,11111222 
NDBC,ioos:station:NOAA.NDBC:SANF1:1,2019-09-01T01:50:00Z,24.4560,-81.8770,28.6,11111222 
NDBC,ioos:station:NOAA.NDBC:SANF1:1,2019-09-01T02:50:00Z,24.4560,-81.8770,27.7,11111222 
NDBC,ioos:station:NOAA.NDBC:SANF1:1,2019-09-01T03:50:00Z,24.4560,-81.8770,27.3,11111222 
NDBC,ioos:station:NOAA.NDBC:SANF1:1,2019-09-01T04:50:00Z,24.4560,-81.8770,28.1,11111222 
NDBC,ioos:station:NOAA.NDBC:SANF1:1,2019-09-01T05:50:00Z,24.4560,-81.8770,28.3,11111222 
NDBC,ioos:station:NOAA.NDBC:SANF1:1,2019-09-01T06:50:00Z,24.4560,-81.8770,28.3,11111222 
NDBC,ioos:station:NOAA.NDBC:SANF1:1,2019-09-01T08:00:00Z,24.4560,-81.8770,28.3,11111222 
NDBC,ioos:station:NOAA.NDBC:SANF1:1,2019-09-01T08:50:00Z,24.4560,-81.8770,27.7,11111222 
NDBC,ioos:station:NOAA.NDBC:SANF1:1,2019-09-01T09:50:00Z,24.4560,-81.8770,28.0,11111222 
NDBC,ioos:station:NOAA.NDBC:SANF1:1,2019-09-01T10:50:00Z,24.4560,-81.8770,28.0,11111222 
NDBC,ioos:station:NOAA.NDBC:SANF1:1,2019-09-01T11:50:00Z,24.4560,-81.8770,28.7,11111222 
NDBC,ioos:station:NOAA.NDBC:SANF1:1,2019-09-01T12:50:00Z,24.4560,-81.8770,28.7,11111222 
NDBC,ioos:station:NOAA.NDBC:SANF1:1,2019-09-01T13:50:00Z,24.4560,-81.8770,28.8,11111222 
NDBC,ioos:station:NOAA.NDBC:SANF1:1,2019-09-01T14:50:00Z,24.4560,-81.8770,28.8,11111222 
NDBC,ioos:station:NOAA.NDBC:SANF1:1,2019-09-01T15:50:00Z,24.4560,-81.8770,28.4,11111222 
NDBC,ioos:station:NOAA.NDBC:SANF1:1,2019-09-01T16:50:00Z,24.4560,-81.8770,27.0,11111222 
NDBC,ioos:station:NOAA.NDBC:SANF1:1,2019-09-01T17:50:00Z,24.4560,-81.8770,28.7,11111222 
NDBC,ioos:station:NOAA.NDBC:SANF1:1,2019-09-01T19:00:00Z,24.4560,-81.8770,29.1,11111222 
NDBC,ioos:station:NOAA.NDBC:SANF1:1,2019-09-01T19:50:00Z,24.4560,-81.8770,29.2,11111222 
NDBC,ioos:station:NOAA.NDBC:SANF1:1,2019-09-01T21:00:00Z,24.4560,-81.8770,29.4,11111222 
NDBC,ioos:station:NOAA.NDBC:SANF1:1,2019-09-01T21:50:00Z,24.4560,-81.8770,29.6,11111222 
NDBC,ioos:station:NOAA.NDBC:SANF1:1,2019-09-01T22:50:00Z,24.4560,-81.8770,29.4,11111222 
NDBC,ioos:station:NOAA.NDBC:SANF1:1,2019-09-01T23:50:00Z,24.4560,-81.8770,29.1,11111222 
NDBC,ioos:station:NOAA.NDBC:SANF1:1,2019-09-02T00:50:00Z,24.4560,-81.8770,29.2,11111222 
NDBC,ioos:station:NOAA.NDBC:SANF1:1,2019-09-02T01:50:00Z,24.4560,-81.8770,29.2,11111222 
NDBC,ioos:station:NOAA.NDBC:SANF1:1,2019-09-02T02:50:00Z,24.4560,-81.8770,29.3,11111222 
NDBC,ioos:station:NOAA.NDBC:SANF1:1,2019-09-02T03:50:00Z,24.4560,-81.8770,29.3,11111222 
NDBC,ioos:station:NOAA.NDBC:SANF1:1,2019-09-02T04:50:00Z,24.4560,-81.8770,29.0,11111222 
NDBC,ioos:station:NOAA.NDBC:SANF1:1,2019-09-02T05:50:00Z,24.4560,-81.8770,29.1,11111222 
NDBC,ioos:station:NOAA.NDBC:SANF1:1,2019-09-02T07:00:00Z,24.4560,-81.8770,29.2,11111222 
NDBC,ioos:station:NOAA.NDBC:SANF1:1,2019-09-02T07:50:00Z,24.4560,-81.8770,29.1,11111222 
NDBC,ioos:station:NOAA.NDBC:SANF1:1,2019-09-02T08:50:00Z,24.4560,-81.8770,29.1,11111222 
NDBC,ioos:station:NOAA.NDBC:SANF1:1,2019-09-02T09:50:00Z,24.4560,-81.8770,28.8,11111222 
NDBC,ioos:station:NOAA.NDBC:SANF1:1,2019-09-02T10:50:00Z,24.4560,-81.8770,28.8,11111222 
NDBC,ioos:station:NOAA.NDBC:SANF1:1,2019-09-02T11:50:00Z,24.4560,-81.8770,29.0,11111222 
NDBC,ioos:station:NOAA.NDBC:SANF1:1,2019-09-02T13:00:00Z,24.4560,-81.8770,29.1,11111222 
NDBC,ioos:station:NOAA.NDBC:SANF1:1,2019-09-02T15:50:00Z,24.4560,-81.8770,29.5,11111222 
NDBC,ioos:station:NOAA.NDBC:SANF1:1,2019-09-02T16:50:00Z,24.4560,-81.8770,29.5,11111222 
NDBC,ioos:station:NOAA.NDBC:SANF1:1,2019-09-02T17:50:00Z,24.4560,-81.8770,29.7,11111222 
NDBC,ioos:station:NOAA.NDBC:SANF1:1,2019-09-02T18:50:00Z,24.4560,-81.8770,29.8,11111222 
NDBC,ioos:station:NOAA.NDBC:SANF1:1,2019-09-02T19:50:00Z,24.4560,-81.8770,29.7,11111222 
NDBC,ioos:station:NOAA.NDBC:SANF1:1,2019-09-02T20:50:00Z,24.4560,-81.8770,29.7,11111222 
NDBC,ioos:station:NOAA.NDBC:SANF1:1,2019-09-02T21:50:00Z,24.4560,-81.8770,29.2,11111222 
NDBC,ioos:station:NOAA.NDBC:SANF1:1,2019-09-02T22:50:00Z,24.4560,-81.8770,29.4,11111222 
NDBC,ioos:station:NOAA.NDBC:SANF1:1,2019-09-02T23:50:00Z,24.4560,-81.8770,29.6,11111222 
NDBC,ioos:station:NOAA.NDBC:SANF1:1,2019-09-03T00:50:00Z,24.4560,-81.8770,29.8,11111222 
NDBC,ioos:station:NOAA.NDBC:SANF1:1,2019-09-03T01:50:00Z,24.4560,-81.8770,29.8,11111222 
NDBC,ioos:station:NOAA.NDBC:SANF1:1,2019-09-03T02:50:00Z,24.4560,-81.8770,30.0,11111222 
NDBC,ioos:station:NOAA.NDBC:SANF1:1,2019-09-03T03:50:00Z,24.4560,-81.8770,29.9,11111222 
NDBC,ioos:station:NOAA.NDBC:SANF1:1,2019-09-03T04:50:00Z,24.4560,-81.8770,29.5,11111222 
NDBC,ioos:station:NOAA.NDBC:SANF1:1,2019-09-03T05:50:00Z,24.4560,-81.8770,28.8,11111222 
NDBC,ioos:station:NOAA.NDBC:SANF1:1,2019-09-03T06:50:00Z,24.4560,-81.8770,28.9,11111222 
NDBC,ioos:station:NOAA.NDBC:SANF1:1,2019-09-03T07:50:00Z,24.4560,-81.8770,28.8,11111222 
NDBC,ioos:station:NOAA.NDBC:SANF1:1,2019-09-03T08:50:00Z,24.4560,-81.8770,29.6,11111222 
NDBC,ioos:station:NOAA.NDBC:SANF1:1,2019-09-03T09:50:00Z,24.4560,-81.8770,29.5,11111222 
NDBC,ioos:station:NOAA.NDBC:SANF1:1,2019-09-03T10:50:00Z,24.4560,-81.8770,28.6,11111222 
NDBC,ioos:station:NOAA.NDBC:SANF1:1,2019-09-03T11:50:00Z,24.4560,-81.8770,28.5,11111222 
NDBC,ioos:station:NOAA.NDBC:SANF1:1,2019-09-03T12:50:00Z,24.4560,-81.8770,28.7,11111222 
NDBC,ioos:station:NOAA.NDBC:SANF1:1,2019-09-03T13:50:00Z,24.4560,-81.8770,28.9,11111222 
NDBC,ioos:station:NOAA.NDBC:SANF1:1,2019-09-03T14:50:00Z,24.4560,-81.8770,29.0,11111222 
NDBC,ioos:station:NOAA.NDBC:SANF1:1,2019-09-03T15:50:00Z,24.4560,-81.8770,29.3,11111222 
NDBC,ioos:station:NOAA.NDBC:SANF1:1,2019-09-03T16:50:00Z,24.4560,-81.8770,29.4,11111222 
NDBC,ioos:station:NOAA.NDBC:SANF1:1,2019-09-03T17:50:00Z,24.4560,-81.8770,29.5,11111222 
NDBC,ioos:station:NOAA.NDBC:SANF1:1,2019-09-03T19:00:00Z,24.4560,-81.8770,28.6,11111222 
NDBC,ioos:station:NOAA.NDBC:SANF1:1,2019-09-03T19:50:00Z,24.4560,-81.8770,29.8,11111222 
NDBC,ioos:station:NOAA.NDBC:SANF1:1,2019-09-03T20:50:00Z,24.4560,-81.8770,30.2,11111222 
NDBC,ioos:station:NOAA.NDBC:SANF1:1,2019-09-03T22:00:00Z,24.4560,-81.8770,27.6,11111222 
NDBC,ioos:station:NOAA.NDBC:SANF1:1,2019-09-03T22:50:00Z,24.4560,-81.8770,29.3,11111222 
NDBC,ioos:station:NOAA.NDBC:SANF1:1,2019-09-03T23:50:00Z,24.4560,-81.8770,29.8,11111222 
NDBC,ioos:station:NOAA.NDBC:SANF1:1,2019-09-04T00:50:00Z,24.4560,-81.8770,29.6,11111222 
NDBC,ioos:station:NOAA.NDBC:SANF1:1,2019-09-04T01:50:00Z,24.4560,-81.8770,29.9,11111222 
NDBC,ioos:station:NOAA.NDBC:SANF1:1,2019-09-04T02:50:00Z,24.4560,-81.8770,29.9,11111222 
NDBC,ioos:station:NOAA.NDBC:SANF1:1,2019-09-04T04:00:00Z,24.4560,-81.8770,29.8,11111222 
NDBC,ioos:station:NOAA.NDBC:SANF1:1,2019-09-04T04:50:00Z,24.4560,-81.8770,29.8,11111222 
NDBC,ioos:station:NOAA.NDBC:SANF1:1,2019-09-04T05:50:00Z,24.4560,-81.8770,29.6,11111222 
NDBC,ioos:station:NOAA.NDBC:SANF1:1,2019-09-04T06:50:00Z,24.4560,-81.8770,29.5,11111222 
NDBC,ioos:station:NOAA.NDBC:SANF1:1,2019-09-04T07:50:00Z,24.4560,-81.8770,29.1,11111222 
NDBC,ioos:station:NOAA.NDBC:SANF1:1,2019-09-04T09:00:00Z,24.4560,-81.8770,28.9,11111222 
NDBC,ioos:station:NOAA.NDBC:SANF1:1,2019-09-04T09:50:00Z,24.4560,-81.8770,29.0,11111222 
NDBC,ioos:station:NOAA.NDBC:SANF1:1,2019-09-04T10:50:00Z,24.4560,-81.8770,29.2,11111222 
NDBC,ioos:station:NOAA.NDBC:SANF1:1,2019-09-04T11:50:00Z,24.4560,-81.8770,29.5,11111222 
NDBC,ioos:station:NOAA.NDBC:SANF1:1,2019-09-04T12:50:00Z,24.4560,-81.8770,29.2,11111222 
NDBC,ioos:station:NOAA.NDBC:SANF1:1,2019-09-04T13:50:00Z,24.4560,-81.8770,29.5,11111222 
NDBC,ioos:station:NOAA.NDBC:SANF1:1,2019-09-04T14:50:00Z,24.4560,-81.8770,29.8,11111222 
NDBC,ioos:station:NOAA.NDBC:SANF1:1,2019-09-04T15:50:00Z,24.4560,-81.8770,29.8,11111222 
NDBC,ioos:station:NOAA.NDBC:SANF1:1,2019-09-04T16:50:00Z,24.4560,-81.8770,26.5,11111222 
NDBC,ioos:station:NOAA.NDBC:SANF1:1,2019-09-04T17:50:00Z,24.4560,-81.8770,28.3,11111222 
NDBC,ioos:station:NOAA.NDBC:SANF1:1,2019-09-04T18:50:00Z,24.4560,-81.8770,28.9,11111222 
NDBC,ioos:station:NOAA.NDBC:SANF1:1,2019-09-04T19:50:00Z,24.4560,-81.8770,29.1,11111222 
NDBC,ioos:station:NOAA.NDBC:SANF1:1,2019-09-04T20:50:00Z,24.4560,-81.8770,29.7,11111222 
NDBC,ioos:station:NOAA.NDBC:SANF1:1,2019-09-04T21:50:00Z,24.4560,-81.8770,29.9,11111222 
NDBC,ioos:station:NOAA.NDBC:SANF1:1,2019-09-04T22:50:00Z,24.4560,-81.8770,29.9,11111222 
NDBC,ioos:station:NOAA.NDBC:SANF1:1,2019-09-04T23:50:00Z,24.4560,-81.8770,29.7,11111222 
NDBC,ioos:station:NOAA.NDBC:SANF1:1,2019-09-05T00:50:00Z,24.4560,-81.8770,29.7,11111222 
NDBC,ioos:station:NOAA.NDBC:SANF1:1,2019-09-05T01:50:00Z,24.4560,-81.8770,29.7,11111222 
NDBC,ioos:station:NOAA.NDBC:SANF1:1,2019-09-05T02:50:00Z,24.4560,-81.8770,29.7,11111222 
NDBC,ioos:station:NOAA.NDBC:SANF1:1,2019-09-05T03:50:00Z,24.4560,-81.8770,29.7,11111222 
NDBC,ioos:station:NOAA.NDBC:SANF1:1,2019-09-05T04:50:00Z,24.4560,-81.8770,29.3,11111222 
NDBC,ioos:station:NOAA.NDBC:SANF1:1,2019-09-05T06:00:00Z,24.4560,-81.8770,29.5,11111222 
NDBC,ioos:station:NOAA.NDBC:SANF1:1,2019-09-05T06:50:00Z,24.4560,-81.8770,29.5,11111222 
NDBC,ioos:station:NOAA.NDBC:SANF1:1,2019-09-05T07:50:00Z,24.4560,-81.8770,29.2,11111222 
NDBC,ioos:station:NOAA.NDBC:SANF1:1,2019-09-05T08:40:00Z,24.4560,-81.8770,29.4,11111222 
NDBC,ioos:station:NOAA.NDBC:SANF1:1,2019-09-05T09:50:00Z,24.4560,-81.8770,29.4,11111222 
NDBC,ioos:station:NOAA.NDBC:SANF1:1,2019-09-05T11:00:00Z,24.4560,-81.8770,29.5,11111222 
NDBC,ioos:station:NOAA.NDBC:SANF1:1,2019-09-05T11:50:00Z,24.4560,-81.8770,29.4,11111222 
NDBC,ioos:station:NOAA.NDBC:SANF1:1,2019-09-05T12:50:00Z,24.4560,-81.8770,29.5,11111222 
NDBC,ioos:station:NOAA.NDBC:SANF1:1,2019-09-05T13:50:00Z,24.4560,-81.8770,29.5,11111222 
NDBC,ioos:station:NOAA.NDBC:SANF1:1,2019-09-05T14:50:00Z,24.4560,-81.8770,29.7,11111222 
NDBC,ioos:station:NOAA.NDBC:SANF1:1,2019-09-05T15:20:00Z,24.4560,-81.8770,29.7,11111222 
NDBC,ioos:station:NOAA.NDBC:SANF1:1,2019-09-05T16:50:00Z,24.4560,-81.8770,29.4,11111222 
NDBC,ioos:station:NOAA.NDBC:SANF1:1,2019-09-05T17:50:00Z,24.4560,-81.8770,29.9,11111222 
NDBC,ioos:station:NOAA.NDBC:SANF1:1,2019-09-05T18:50:00Z,24.4560,-81.8770,29.3,11111222 
NDBC,ioos:station:NOAA.NDBC:SANF1:1,2019-09-05T19:50:00Z,24.4560,-81.8770,29.4,11111222 
NDBC,ioos:station:NOAA.NDBC:SANF1:1,2019-09-05T20:50:00Z,24.4560,-81.8770,29.6,11111222 
NDBC,ioos:station:NOAA.NDBC:SANF1:1,2019-09-05T21:50:00Z,24.4560,-81.8770,29.7,11111222 
NDBC,ioos:station:NOAA.NDBC:SANF1:1,2019-09-05T22:50:00Z,24.4560,-81.8770,29.8,11111222 
NDBC,ioos:station:NOAA.NDBC:SANF1:1,2019-09-05T23:50:00Z,24.4560,-81.8770,29.5,11111222 
NDBC,ioos:station:NOAA.NDBC:SANF1:1,2019-09-06T00:50:00Z,24.4560,-81.8770,29.5,11111222 
NDBC,ioos:station:NOAA.NDBC:SANF1:1,2019-09-06T01:50:00Z,24.4560,-81.8770,29.6,11111222 
NDBC,ioos:station:NOAA.NDBC:SANF1:1,2019-09-06T02:50:00Z,24.4560,-81.8770,29.6,11111222 
NDBC,ioos:station:NOAA.NDBC:SANF1:1,2019-09-06T03:50:00Z,24.4560,-81.8770,29.7,11111222 
NDBC,ioos:station:NOAA.NDBC:SANF1:1,2019-09-06T04:50:00Z,24.4560,-81.8770,29.6,11111222 
NDBC,ioos:station:NOAA.NDBC:SANF1:1,2019-09-06T07:10:00Z,24.4560,-81.8770,29.4,11111222 
NDBC,ioos:station:NOAA.NDBC:SANF1:1,2019-09-06T08:00:00Z,24.4560,-81.8770,29.3,11111222 
NDBC,ioos:station:NOAA.NDBC:SANF1:1,2019-09-06T08:50:00Z,24.4560,-81.8770,29.3,11111222 
NDBC,ioos:station:NOAA.NDBC:SANF1:1,2019-09-06T10:00:00Z,24.4560,-81.8770,29.3,11111222 
NDBC,ioos:station:NOAA.NDBC:SANF1:1,2019-09-06T11:00:00Z,24.4560,-81.8770,29.2,11111222 
NDBC,ioos:station:NOAA.NDBC:SANF1:1,2019-09-06T11:50:00Z,24.4560,-81.8770,29.3,11111222 
NDBC,ioos:station:NOAA.NDBC:SANF1:1,2019-09-06T12:50:00Z,24.4560,-81.8770,29.5,11111222 
NDBC,ioos:station:NOAA.NDBC:SANF1:1,2019-09-06T13:50:00Z,24.4560,-81.8770,29.7,11111222 
NDBC,ioos:station:NOAA.NDBC:SANF1:1,2019-09-06T14:50:00Z,24.4560,-81.8770,29.5,11111222 
NDBC,ioos:station:NOAA.NDBC:SANF1:1,2019-09-06T15:50:00Z,24.4560,-81.8770,29.6,11111222 
NDBC,ioos:station:NOAA.NDBC:SANF1:1,2019-09-06T16:50:00Z,24.4560,-81.8770,29.7,11111222 
NDBC,ioos:station:NOAA.NDBC:SANF1:1,2019-09-06T17:50:00Z,24.4560,-81.8770,29.7,11111222 
NDBC,ioos:station:NOAA.NDBC:SANF1:1,2019-09-06T18:50:00Z,24.4560,-81.8770,29.7,11111222 
NDBC,ioos:station:NOAA.NDBC:SANF1:1,2019-09-06T19:50:00Z,24.4560,-81.8770,29.9,11111222 
NDBC,ioos:station:NOAA.NDBC:SANF1:1,2019-09-06T20:50:00Z,24.4560,-81.8770,30.1,11111222 
NDBC,ioos:station:NOAA.NDBC:SANF1:1,2019-09-06T21:50:00Z,24.4560,-81.8770,30.4,11111222 
NDBC,ioos:station:NOAA.NDBC:SANF1:1,2019-09-06T22:50:00Z,24.4560,-81.8770,30.2,11111222 
NDBC,ioos:station:NOAA.NDBC:SANF1:1,2019-09-06T23:50:00Z,24.4560,-81.8770,29.7,11111222 
NDBC,ioos:station:NOAA.NDBC:SANF1:1,2019-09-07T00:50:00Z,24.4560,-81.8770,29.9,11111222 
NDBC,ioos:station:NOAA.NDBC:SANF1:1,2019-09-07T01:50:00Z,24.4560,-81.8770,29.9,11111222 
NDBC,ioos:station:NOAA.NDBC:SANF1:1,2019-09-07T02:50:00Z,24.4560,-81.8770,29.7,11111222 
NDBC,ioos:station:NOAA.NDBC:SANF1:1,2019-09-07T03:50:00Z,24.4560,-81.8770,29.6,11111222 
NDBC,ioos:station:NOAA.NDBC:SANF1:1,2019-09-07T04:50:00Z,24.4560,-81.8770,29.5,11111222 
NDBC,ioos:station:NOAA.NDBC:SANF1:1,2019-09-07T05:50:00Z,24.4560,-81.8770,29.4,11111222 
NDBC,ioos:station:NOAA.NDBC:SANF1:1,2019-09-07T06:50:00Z,24.4560,-81.8770,29.2,11111222 
NDBC,ioos:station:NOAA.NDBC:SANF1:1,2019-09-07T07:50:00Z,24.4560,-81.8770,29.2,11111222 
NDBC,ioos:station:NOAA.NDBC:SANF1:1,2019-09-07T08:50:00Z,24.4560,-81.8770,29.1,11111222 
NDBC,ioos:station:NOAA.NDBC:SANF1:1,2019-09-07T09:50:00Z,24.4560,-81.8770,29.0,11111222 
NDBC,ioos:station:NOAA.NDBC:SANF1:1,2019-09-07T10:50:00Z,24.4560,-81.8770,29.1,11111222 
NDBC,ioos:station:NOAA.NDBC:SANF1:1,2019-09-07T11:50:00Z,24.4560,-81.8770,29.1,11111222 
NDBC,ioos:station:NOAA.NDBC:SANF1:1,2019-09-07T12:50:00Z,24.4560,-81.8770,29.5,11111222 
NDBC,ioos:station:NOAA.NDBC:SANF1:1,2019-09-07T13:50:00Z,24.4560,-81.8770,29.9,11111222 
NDBC,ioos:station:NOAA.NDBC:SANF1:1,2019-09-07T14:50:00Z,24.4560,-81.8770,29.9,11111222 
NDBC,ioos:station:NOAA.NDBC:SANF1:1,2019-09-07T15:50:00Z,24.4560,-81.8770,29.8,11111222 
NDBC,ioos:station:NOAA.NDBC:SANF1:1,2019-09-07T16:50:00Z,24.4560,-81.8770,29.6,11111222 
NDBC,ioos:station:NOAA.NDBC:SANF1:1,2019-09-07T18:00:00Z,24.4560,-81.8770,30.0,11111222 
NDBC,ioos:station:NOAA.NDBC:SANF1:1,2019-09-07T19:00:00Z,24.4560,-81.8770,30.1,11111222 
NDBC,ioos:station:NOAA.NDBC:SANF1:1,2019-09-07T20:00:00Z,24.4560,-81.8770,30.3,11111222 
NDBC,ioos:station:NOAA.NDBC:SANF1:1,2019-09-07T21:00:00Z,24.4560,-81.8770,30.3,11111222 
NDBC,ioos:station:NOAA.NDBC:SANF1:1,2019-09-07T21:50:00Z,24.4560,-81.8770,30.2,11111222 
NDBC,ioos:station:NOAA.NDBC:SANF1:1,2019-09-07T22:50:00Z,24.4560,-81.8770,29.7,11111222 
NDBC,ioos:station:NOAA.NDBC:SANF1:1,2019-09-07T23:50:00Z,24.4560,-81.8770,29.5,11111222 
NDBC,ioos:station:NOAA.NDBC:SANF1:1,2019-09-08T00:50:00Z,24.4560,-81.8770,29.4,11111222 
NDBC,ioos:station:NOAA.NDBC:SANF1:1,2019-09-08T01:50:00Z,24.4560,-81.8770,29.3,11111222 
NDBC,ioos:station:NOAA.NDBC:SANF1:1,2019-09-08T02:50:00Z,24.4560,-81.8770,29.1,11111222 
NDBC,ioos:station:NOAA.NDBC:SANF1:1,2019-09-08T03:50:00Z,24.4560,-81.8770,29.0,11111222 
NDBC,ioos:station:NOAA.NDBC:SANF1:1,2019-09-08T04:50:00Z,24.4560,-81.8770,29.0,11111222 
NDBC,ioos:station:NOAA.NDBC:SANF1:1,2019-09-08T05:50:00Z,24.4560,-81.8770,28.9,11111222 
NDBC,ioos:station:NOAA.NDBC:SANF1:1,2019-09-08T06:50:00Z,24.4560,-81.8770,28.9,11111222 
NDBC,ioos:station:NOAA.NDBC:SANF1:1,2019-09-08T07:50:00Z,24.4560,-81.8770,28.9,11111222 
NDBC,ioos:station:NOAA.NDBC:SANF1:1,2019-09-08T08:50:00Z,24.4560,-81.8770,28.9,11111222 
NDBC,ioos:station:NOAA.NDBC:SANF1:1,2019-09-08T09:50:00Z,24.4560,-81.8770,28.9,11111222 
NDBC,ioos:station:NOAA.NDBC:SANF1:1,2019-09-08T11:00:00Z,24.4560,-81.8770,28.9,11111222 
NDBC,ioos:station:NOAA.NDBC:SANF1:1,2019-09-08T11:50:00Z,24.4560,-81.8770,29.2,11111222 
NDBC,ioos:station:NOAA.NDBC:SANF1:1,2019-09-08T13:00:00Z,24.4560,-81.8770,30.5,11111222 
NDBC,ioos:station:NOAA.NDBC:SANF1:1,2019-09-08T13:50:00Z,24.4560,-81.8770,30.4,11111222 
NDBC,ioos:station:NOAA.NDBC:SANF1:1,2019-09-08T14:50:00Z,24.4560,-81.8770,31.1,11111222 
NDBC,ioos:station:NOAA.NDBC:SANF1:1,2019-09-08T15:50:00Z,24.4560,-81.8770,30.2,11111222 
NDBC,ioos:station:NOAA.NDBC:SANF1:1,2019-09-08T16:50:00Z,24.4560,-81.8770,30.0,11111222 
NDBC,ioos:station:NOAA.NDBC:SANF1:1,2019-09-08T17:50:00Z,24.4560,-81.8770,30.0,11111222 
NDBC,ioos:station:NOAA.NDBC:SANF1:1,2019-09-08T18:50:00Z,24.4560,-81.8770,30.2,11111222 
NDBC,ioos:station:NOAA.NDBC:SANF1:1,2019-09-08T19:50:00Z,24.4560,-81.8770,30.3,11111222 
NDBC,ioos:station:NOAA.NDBC:SANF1:1,2019-09-08T20:50:00Z,24.4560,-81.8770,30.2,11111222 
NDBC,ioos:station:NOAA.NDBC:SANF1:1,2019-09-08T21:50:00Z,24.4560,-81.8770,30.3,11111222 
NDBC,ioos:station:NOAA.NDBC:SANF1:1,2019-09-08T22:50:00Z,24.4560,-81.8770,30.3,11111222 
NDBC,ioos:station:NOAA.NDBC:SANF1:1,2019-09-08T23:50:00Z,24.4560,-81.8770,30.0,11111222 
NDBC,ioos:station:NOAA.NDBC:SANF1:1,2019-09-09T00:50:00Z,24.4560,-81.8770,30.0,11111222 
NDBC,ioos:station:NOAA.NDBC:SANF1:1,2019-09-09T01:50:00Z,24.4560,-81.8770,29.9,11111222 
NDBC,ioos:station:NOAA.NDBC:SANF1:1,2019-09-09T03:00:00Z,24.4560,-81.8770,29.9,11111222 
NDBC,ioos:station:NOAA.NDBC:SANF1:1,2019-09-09T03:50:00Z,24.4560,-81.8770,29.9,11111222 
NDBC,ioos:station:NOAA.NDBC:SANF1:1,2019-09-09T04:50:00Z,24.4560,-81.8770,30.0,11111222 
NDBC,ioos:station:NOAA.NDBC:SANF1:1,2019-09-09T05:50:00Z,24.4560,-81.8770,29.9,11111222 
NDBC,ioos:station:NOAA.NDBC:SANF1:1,2019-09-09T06:50:00Z,24.4560,-81.8770,29.8,11111222 
NDBC,ioos:station:NOAA.NDBC:SANF1:1,2019-09-09T07:50:00Z,24.4560,-81.8770,27.9,11111222 
NDBC,ioos:station:NOAA.NDBC:SANF1:1,2019-09-09T08:50:00Z,24.4560,-81.8770,28.7,11111222 
NDBC,ioos:station:NOAA.NDBC:SANF1:1,2019-09-09T09:50:00Z,24.4560,-81.8770,29.8,11111222 
NDBC,ioos:station:NOAA.NDBC:SANF1:1,2019-09-09T10:50:00Z,24.4560,-81.8770,29.6,11111222 
NDBC,ioos:station:NOAA.NDBC:SANF1:1,2019-09-09T11:50:00Z,24.4560,-81.8770,29.8,11111222 
NDBC,ioos:station:NOAA.NDBC:SANF1:1,2019-09-09T12:50:00Z,24.4560,-81.8770,29.7,11111222 
NDBC,ioos:station:NOAA.NDBC:SANF1:1,2019-09-09T14:00:00Z,24.4560,-81.8770,29.4,11111222 
NDBC,ioos:station:NOAA.NDBC:SANF1:1,2019-09-09T15:00:00Z,24.4560,-81.8770,29.5,11111222 
NDBC,ioos:station:NOAA.NDBC:SANF1:1,2019-09-09T16:00:00Z,24.4560,-81.8770,29.8,11111222 
NDBC,ioos:station:NOAA.NDBC:SANF1:1,2019-09-09T17:00:00Z,24.4560,-81.8770,29.8,11111222 
NDBC,ioos:station:NOAA.NDBC:SANF1:1,2019-09-09T17:50:00Z,24.4560,-81.8770,30.0,11111222 
NDBC,ioos:station:NOAA.NDBC:SANF1:1,2019-09-09T21:50:00Z,24.4560,-81.8770,30.3,11111222 
NDBC,ioos:station:NOAA.NDBC:SANF1:1,2019-09-09T22:50:00Z,24.4560,-81.8770,30.1,11111222 
NDBC,ioos:station:NOAA.NDBC:SANF1:1,2019-09-09T23:50:00Z,24.4560,-81.8770,30.0,11111222 
NDBC,ioos:station:NOAA.NDBC:SANF1:1,2019-09-10T00:50:00Z,24.4560,-81.8770,30.0,11111222 
NDBC,ioos:station:NOAA.NDBC:SANF1:1,2019-09-10T02:00:00Z,24.4560,-81.8770,29.9,11111222 
NDBC,ioos:station:NOAA.NDBC:SANF1:1,2019-09-10T02:50:00Z,24.4560,-81.8770,29.9,11111222 
NDBC,ioos:station:NOAA.NDBC:SANF1:1,2019-09-10T03:50:00Z,24.4560,-81.8770,29.7,11111222 
NDBC,ioos:station:NOAA.NDBC:SANF1:1,2019-09-10T04:50:00Z,24.4560,-81.8770,29.6,11111222 
NDBC,ioos:station:NOAA.NDBC:SANF1:1,2019-09-10T06:00:00Z,24.4560,-81.8770,29.6,11111222 
NDBC,ioos:station:NOAA.NDBC:SANF1:1,2019-09-10T06:50:00Z,24.4560,-81.8770,29.6,11111222 
NDBC,ioos:station:NOAA.NDBC:SANF1:1,2019-09-10T07:50:00Z,24.4560,-81.8770,29.6,11111222 
NDBC,ioos:station:NOAA.NDBC:SANF1:1,2019-09-10T08:50:00Z,24.4560,-81.8770,29.6,11111222 
NDBC,ioos:station:NOAA.NDBC:SANF1:1,2019-09-10T09:50:00Z,24.4560,-81.8770,28.8,11111222 
NDBC,ioos:station:NOAA.NDBC:SANF1:1,2019-09-10T10:50:00Z,24.4560,-81.8770,29.2,11111222 
NDBC,ioos:station:NOAA.NDBC:SANF1:1,2019-09-10T11:50:00Z,24.4560,-81.8770,29.2,11111222 
NDBC,ioos:station:NOAA.NDBC:SANF1:1,2019-09-10T12:50:00Z,24.4560,-81.8770,29.4,11111222 
NDBC,ioos:station:NOAA.NDBC:SANF1:1,2019-09-10T13:50:00Z,24.4560,-81.8770,28.4,11111222 
NDBC,ioos:station:NOAA.NDBC:SANF1:1,2019-09-10T14:50:00Z,24.4560,-81.8770,28.7,11111222 
NDBC,ioos:station:NOAA.NDBC:SANF1:1,2019-09-10T15:50:00Z,24.4560,-81.8770,28.5,11111222 
NDBC,ioos:station:NOAA.NDBC:SANF1:1,2019-09-10T16:50:00Z,24.4560,-81.8770,29.2,11111222 
NDBC,ioos:station:NOAA.NDBC:SANF1:1,2019-09-10T18:00:00Z,24.4560,-81.8770,29.5,11111222 
NDBC,ioos:station:NOAA.NDBC:SANF1:1,2019-09-10T18:50:00Z,24.4560,-81.8770,29.8,11111222 
NDBC,ioos:station:NOAA.NDBC:SANF1:1,2019-09-10T19:50:00Z,24.4560,-81.8770,29.9,11111222 
NDBC,ioos:station:NOAA.NDBC:SANF1:1,2019-09-10T20:50:00Z,24.4560,-81.8770,29.9,11111222 
NDBC,ioos:station:NOAA.NDBC:SANF1:1,2019-09-10T21:50:00Z,24.4560,-81.8770,30.1,11111222 
NDBC,ioos:station:NOAA.NDBC:SANF1:1,2019-09-10T22:50:00Z,24.4560,-81.8770,29.8,11111222 
NDBC,ioos:station:NOAA.NDBC:SANF1:1,2019-09-10T23:50:00Z,24.4560,-81.8770,29.7,11111222 
NDBC,ioos:station:NOAA.NDBC:SANF1:1,2019-09-11T01:00:00Z,24.4560,-81.8770,29.7,11111222 
NDBC,ioos:station:NOAA.NDBC:SANF1:1,2019-09-11T01:50:00Z,24.4560,-81.8770,29.8,11111222 
NDBC,ioos:station:NOAA.NDBC:SANF1:1,2019-09-11T02:50:00Z,24.4560,-81.8770,29.8,11111222 
NDBC,ioos:station:NOAA.NDBC:SANF1:1,2019-09-11T03:50:00Z,24.4560,-81.8770,29.8,11111222 
NDBC,ioos:station:NOAA.NDBC:SANF1:1,2019-09-11T04:50:00Z,24.4560,-81.8770,29.7,11111222 
NDBC,ioos:station:NOAA.NDBC:SANF1:1,2019-09-11T05:50:00Z,24.4560,-81.8770,29.7,11111222 
NDBC,ioos:station:NOAA.NDBC:SANF1:1,2019-09-11T07:00:00Z,24.4560,-81.8770,29.3,11111222 
NDBC,ioos:station:NOAA.NDBC:SANF1:1,2019-09-11T08:00:00Z,24.4560,-81.8770,29.2,11111222 
NDBC,ioos:station:NOAA.NDBC:SANF1:1,2019-09-11T09:00:00Z,24.4560,-81.8770,29.1,11111222 
NDBC,ioos:station:NOAA.NDBC:SANF1:1,2019-09-11T09:50:00Z,24.4560,-81.8770,29.1,11111222 
NDBC,ioos:station:NOAA.NDBC:SANF1:1,2019-09-11T10:50:00Z,24.4560,-81.8770,28.7,11111222 
NDBC,ioos:station:NOAA.NDBC:SANF1:1,2019-09-11T12:00:00Z,24.4560,-81.8770,28.5,11111222 
NDBC,ioos:station:NOAA.NDBC:SANF1:1,2019-09-11T13:00:00Z,24.4560,-81.8770,28.7,11111222 
NDBC,ioos:station:NOAA.NDBC:SANF1:1,2019-09-11T13:50:00Z,24.4560,-81.8770,28.8,11111222 
NDBC,ioos:station:NOAA.NDBC:SANF1:1,2019-09-11T14:50:00Z,24.4560,-81.8770,29.1,11111222 
NDBC,ioos:station:NOAA.NDBC:SANF1:1,2019-09-11T15:50:00Z,24.4560,-81.8770,29.2,11111222 
NDBC,ioos:station:NOAA.NDBC:SANF1:1,2019-09-11T16:50:00Z,24.4560,-81.8770,29.7,11111222 
NDBC,ioos:station:NOAA.NDBC:SANF1:1,2019-09-11T17:40:00Z,24.4560,-81.8770,29.8,11111222 
NDBC,ioos:station:NOAA.NDBC:SANF1:1,2019-09-11T19:50:00Z,24.4560,-81.8770,29.9,11111222 
NDBC,ioos:station:NOAA.NDBC:SANF1:1,2019-09-11T20:50:00Z,24.4560,-81.8770,30.0,11111222 
NDBC,ioos:station:NOAA.NDBC:SANF1:1,2019-09-11T21:50:00Z,24.4560,-81.8770,29.8,11111222 
NDBC,ioos:station:NOAA.NDBC:SANF1:1,2019-09-11T22:50:00Z,24.4560,-81.8770,27.7,11111222 
NDBC,ioos:station:NOAA.NDBC:SANF1:1,2019-09-11T23:50:00Z,24.4560,-81.8770,29.6,11111222 
NDBC,ioos:station:NOAA.NDBC:SANF1:1,2019-09-12T01:00:00Z,24.4560,-81.8770,29.6,11111222 
NDBC,ioos:station:NOAA.NDBC:SANF1:1,2019-09-12T01:50:00Z,24.4560,-81.8770,29.5,11111222 
NDBC,ioos:station:NOAA.NDBC:SANF1:1,2019-09-12T02:50:00Z,24.4560,-81.8770,29.0,11111222 
NDBC,ioos:station:NOAA.NDBC:SANF1:1,2019-09-12T03:50:00Z,24.4560,-81.8770,28.9,11111222 
NDBC,ioos:station:NOAA.NDBC:SANF1:1,2019-09-12T04:50:00Z,24.4560,-81.8770,28.6,11111222 
NDBC,ioos:station:NOAA.NDBC:SANF1:1,2019-09-12T06:00:00Z,24.4560,-81.8770,28.4,11111222 
NDBC,ioos:station:NOAA.NDBC:SANF1:1,2019-09-12T06:50:00Z,24.4560,-81.8770,28.3,11111222 
NDBC,ioos:station:NOAA.NDBC:SANF1:1,2019-09-12T07:50:00Z,24.4560,-81.8770,28.2,11111222 
NDBC,ioos:station:NOAA.NDBC:SANF1:1,2019-09-12T08:50:00Z,24.4560,-81.8770,28.1,11111222 
NDBC,ioos:station:NOAA.NDBC:SANF1:1,2019-09-12T10:00:00Z,24.4560,-81.8770,28.0,11111222 
NDBC,ioos:station:NOAA.NDBC:SANF1:1,2019-09-12T10:50:00Z,24.4560,-81.8770,28.0,11111222 